When you browse on this site, cookies collect data to enhance your experience and personalize the content and advertising you see.
Visit our Privacy Policy to learn more. By continuing to use the site, you agree to this use of cookies and data.
  • In Latvia
  • List of Countries
  • For 7 days
  • Water Temperature
  • Satellite Maps
  • Weather Map
  • Weather Widgets
  • user-avatar
    Login

    Hourly Weather Giumri

    Today, 21 April, Sunday

    Time Temperature Precipitation Wind Pressure Humidity
    00:00 -1°C° 0 mm 2 mps 630 mmHg 82%
    01:00 -1°C° 0.1 mm 2 mps 630 mmHg 82%
    02:00 -1°C° 0.1 mm 2 mps 629 mmHg 82%
    03:00 -1°C° 0.1 mm 2 mps 629 mmHg 82%
    04:00 -1°C° 0.1 mm 2 mps 629 mmHg 81%
    05:00 -1°C° 0.1 mm 2 mps 630 mmHg 81%
    06:00 -1°C° 0.1 mm 2 mps 630 mmHg 80%
    07:00 +1°C° 0.1 mm 2 mps 630 mmHg 75%
    08:00 +3°C° 0.1 mm 2 mps 630 mmHg 69%
    09:00 +3°C° 0.1 mm 3 mps 630 mmHg 63%
    10:00 +4°C° 0.1 mm 3 mps 630 mmHg 62%
    11:00 +5°C° 0.1 mm 3 mps 630 mmHg 60%
    12:00 +5°C° 0.1 mm 3 mps 630 mmHg 59%
    13:00 +7°C° 0.1 mm 3 mps 630 mmHg 60%
    14:00 +7°C° 0.1 mm 3 mps 630 mmHg 60%
    15:00 +7°C° 0.1 mm 3 mps 630 mmHg 61%
    16:00 +5°C° 0.1 mm 3 mps 630 mmHg 64%
    17:00 +4°C° 0.1 mm 4 mps 630 mmHg 68%
    18:00 +3°C° 0.1 mm 4 mps 629 mmHg 71%
    19:00 +1°C° 0.1 mm 4 mps 630 mmHg 74%
    20:00 0°C° 0.1 mm 4 mps 630 mmHg 76%
    21:00 -1°C° 0.1 mm 4 mps 630 mmHg 79%
    22:00 -1°C° 0.1 mm 4 mps 630 mmHg 79%
    23:00 -1°C° 0.1 mm 4 mps 630 mmHg 79%

    Tomorrow, 22 April, Monday

    Time Temperature Precipitation Wind Pressure Humidity
    00:00 -2°C° 0.1 mm 4 mps 630 mmHg 80%
    01:00 -2°C° 0 mm 4 mps 630 mmHg 80%
    02:00 -1°C° 0 mm 3 mps 630 mmHg 81%
    03:00 -2°C° 0 mm 3 mps 630 mmHg 82%
    04:00 -2°C° 0 mm 3 mps 630 mmHg 80%
    05:00 -3°C° 0 mm 4 mps 630 mmHg 79%
    06:00 -3°C° 0 mm 4 mps 630 mmHg 78%
    07:00 -1°C° 0 mm 4 mps 630 mmHg 73%
    08:00 0°C° 0 mm 4 mps 630 mmHg 68%
    09:00 +3°C° 0 mm 4 mps 631 mmHg 62%
    10:00 +2°C° 0 mm 5 mps 631 mmHg 60%
    11:00 +3°C° 0 mm 5 mps 631 mmHg 58%
    12:00 +5°C° 0 mm 5 mps 631 mmHg 56%
    13:00 +4°C° 0 mm 6 mps 630 mmHg 58%
    14:00 +4°C° 0 mm 6 mps 630 mmHg 59%
    15:00 +4°C° 0 mm 6 mps 630 mmHg 60%
    16:00 +3°C° 0 mm 6 mps 630 mmHg 62%
    17:00 +2°C° 0 mm 6 mps 630 mmHg 65%
    18:00 +1°C° 0 mm 5 mps 630 mmHg 68%
    19:00 0°C° 0 mm 4 mps 631 mmHg 71%
    20:00 -1°C° 0 mm 4 mps 631 mmHg 74%
    21:00 -1°C° 0 mm 3 mps 632 mmHg 77%
    22:00 -1°C° 0 mm 3 mps 632 mmHg 77%
    23:00 -1°C° 0 mm 2 mps 632 mmHg 77%

    Day after tomorrow, 23 April, Tuesday

    Time Temperature Precipitation Wind Pressure Humidity
    00:00 -2°C° 0 mm 2 mps 633 mmHg 77%
    01:00 -2°C° 0 mm 2 mps 633 mmHg 78%
    02:00 -2°C° 0 mm 2 mps 633 mmHg 78%
    03:00 -2°C° 0 mm 2 mps 633 mmHg 79%
    04:00 +1°C° 0 mm 1 mps 634 mmHg 78%
    05:00 +1°C° 0 mm 1 mps 634 mmHg 77%
    06:00 +1°C° 0 mm 1 mps 634 mmHg 76%
    07:00 +3°C° 0 mm 1 mps 635 mmHg 70%
    08:00 +3°C° 0 mm 2 mps 636 mmHg 63%
    09:00 +5°C° 0 mm 2 mps 636 mmHg 57%
    10:00 +6°C° 0.1 mm 2 mps 636 mmHg 55%
    11:00 +7°C° 0.1 mm 2 mps 636 mmHg 53%
    12:00 +9°C° 0.1 mm 1 mps 636 mmHg 51%
    13:00 +9°C° 0.2 mm 1 mps 636 mmHg 53%
    14:00 +8°C° 0.2 mm 2 mps 636 mmHg 54%
    15:00 +8°C° 0.2 mm 2 mps 636 mmHg 55%
    16:00 +7°C° 0.3 mm 2 mps 636 mmHg 59%
    17:00 +6°C° 0.3 mm 2 mps 636 mmHg 64%
    18:00 +6°C° 0.3 mm 2 mps 636 mmHg 69%
    19:00 +5°C° 0.2 mm 2 mps 636 mmHg 73%
    20:00 +5°C° 0.2 mm 1 mps 637 mmHg 77%
    21:00 +5°C° 0.2 mm 1 mps 637 mmHg 81%
    22:00 +4°C° 0.1 mm 1 mps 637 mmHg 83%
    23:00 +3°C° 0.1 mm 1 mps 637 mmHg 84%

    24 April, Wednesday

    Time Temperature Precipitation Wind Pressure Humidity
    00:00 +3°C° 0.1 mm 1 mps 637 mmHg 85%
    01:00 +2°C° 0 mm 1 mps 637 mmHg 85%
    02:00 +2°C° 0 mm 1 mps 637 mmHg 85%
    03:00 -1°C° 0 mm 2 mps 637 mmHg 85%
    04:00 -1°C° 0 mm 2 mps 637 mmHg 84%
    05:00 +1°C° 0 mm 1 mps 637 mmHg 82%
    06:00 +1°C° 0 mm 1 mps 637 mmHg 80%
    07:00 +3°C° 0 mm 1 mps 638 mmHg 73%
    08:00 +4°C° 0 mm 1 mps 638 mmHg 65%
    09:00 +6°C° 0 mm 1 mps 638 mmHg 58%
    10:00 +7°C° 0 mm 1 mps 638 mmHg 55%
    11:00 +8°C° 0 mm 1 mps 638 mmHg 52%
    12:00 +9°C° 0 mm 1 mps 638 mmHg 50%
    13:00 +8°C° 0 mm 2 mps 637 mmHg 49%
    14:00 +9°C° 0 mm 2 mps 637 mmHg 48%
    15:00 +9°C° 0 mm 2 mps 637 mmHg 48%
    16:00 +8°C° 0.1 mm 2 mps 637 mmHg 51%
    17:00 +8°C° 0.1 mm 2 mps 637 mmHg 54%
    18:00 +7°C° 0.1 mm 2 mps 636 mmHg 57%
    19:00 +6°C° 0 mm 2 mps 637 mmHg 63%
    20:00 +5°C° 0 mm 2 mps 637 mmHg 69%
    21:00 +3°C° 0 mm 2 mps 637 mmHg 76%
    22:00 +3°C° 0 mm 2 mps 637 mmHg 78%
    23:00 +3°C° 0 mm 2 mps 637 mmHg 80%

    25 April, Thursday

    Time Temperature Precipitation Wind Pressure Humidity
    00:00 +2°C° 0 mm 2 mps 637 mmHg 83%
    01:00 +2°C° 0 mm 2 mps 637 mmHg 84%
    02:00 +1°C° 0 mm 2 mps 637 mmHg 85%
    03:00 +1°C° 0 mm 2 mps 637 mmHg 86%
    04:00 +1°C° 0 mm 2 mps 637 mmHg 83%
    05:00 +1°C° 0 mm 2 mps 637 mmHg 81%
    06:00 +1°C° 0 mm 2 mps 637 mmHg 78%
    07:00 +3°C° 0 mm 2 mps 637 mmHg 69%
    08:00 +5°C° 0 mm 2 mps 638 mmHg 59%
    09:00 +6°C° 0 mm 2 mps 638 mmHg 50%
    10:00 +7°C° 0 mm 2 mps 638 mmHg 48%
    11:00 +8°C° 0 mm 2 mps 637 mmHg 46%
    12:00 +9°C° 0 mm 2 mps 637 mmHg 44%
    13:00 +10°C° 0 mm 2 mps 637 mmHg 45%
    14:00 +10°C° 0 mm 2 mps 637 mmHg 46%
    15:00 +10°C° 0 mm 3 mps 637 mmHg 47%
    16:00 +10°C° 0 mm 3 mps 637 mmHg 51%
    17:00 +9°C° 0 mm 3 mps 637 mmHg 55%
    18:00 +8°C° 0 mm 3 mps 637 mmHg 59%
    19:00 +7°C° 0 mm 2 mps 637 mmHg 65%
    20:00 +5°C° 0 mm 2 mps 637 mmHg 71%
    21:00 +4°C° 0 mm 2 mps 637 mmHg 78%
    22:00 +4°C° 0 mm 2 mps 637 mmHg 79%
    23:00 +3°C° 0 mm 2 mps 637 mmHg 81%

    26 April, Friday

    Time Temperature Precipitation Wind Pressure Humidity
    00:00 +2°C° 0 mm 2 mps 637 mmHg 83%
    01:00 +2°C° 0 mm 2 mps 637 mmHg 84%
    02:00 +2°C° 0 mm 2 mps 636 mmHg 84%
    03:00 +2°C° 0 mm 2 mps 636 mmHg 85%
    04:00 +2°C° 0 mm 2 mps 637 mmHg 84%
    05:00 +2°C° 0 mm 2 mps 637 mmHg 83%
    06:00 +2°C° 0 mm 2 mps 637 mmHg 82%
    07:00 +4°C° 0 mm 2 mps 637 mmHg 75%
    08:00 +6°C° 0 mm 2 mps 637 mmHg 68%
    09:00 +7°C° 0 mm 2 mps 637 mmHg 61%
    10:00 +8°C° 0 mm 2 mps 637 mmHg 58%
    11:00 +9°C° 0 mm 2 mps 637 mmHg 55%
    12:00 +10°C° 0 mm 2 mps 637 mmHg 53%
    13:00 +10°C° 0.1 mm 2 mps 637 mmHg 53%
    14:00 +10°C° 0.1 mm 2 mps 637 mmHg 53%
    15:00 +11°C° 0.1 mm 3 mps 636 mmHg 54%
    16:00 +10°C° 0 mm 3 mps 636 mmHg 57%
    17:00 +9°C° 0 mm 3 mps 636 mmHg 61%
    18:00 +8°C° 0 mm 3 mps 636 mmHg 64%
    19:00 +7°C° 0 mm 2 mps 636 mmHg 71%
    20:00 +6°C° 0 mm 2 mps 636 mmHg 77%
    21:00 +4°C° 0 mm 2 mps 636 mmHg 83%
    22:00 +4°C° 0 mm 2 mps 636 mmHg 85%
    23:00 +3°C° 0 mm 2 mps 636 mmHg 87%
    Show more